Regional Weather Roundup
Issued by NWS

Home | Current Version | Previous Version | Graphics & Text | Print | Product List | Glossary On
Versions: 1 2 3 4 5 6 7 8 9 10 11 12 13 14 15 16 17 18 19 20 21 22 23 24 25 26 27
000
ASUS45 KTFX 271610
RWRMT
MONTANA REGIONAL WEATHER ROUNDUP
NATIONAL WEATHER SERVICE GREAT FALLS MT
1000 AM MDT THU JUL 27 2017

NOTE: "FAIR" INDICATES FEW OR NO CLOUDS BELOW 12000 FEET WITH NO
SIGNIFICANT WEATHER AND/OR OBSTRUCTIONS TO VISIBILITY.

MTZ001>007-043-271700-
WEST OF THE DIVIDE

CITY           SKY/WX    TMP DP  RH WIND       PRES   REMARKS
KALISPELL      SUNNY     73  47  39 VRB3      30.06S
MISSOULA       PTSUNNY   69  52  54 VRB5      30.11S
BUTTE          SUNNY     70  45  40 CALM      30.23F
MULLAN PASS    SUNNY     69  38  32 CALM      30.23S
DEER LODGE       N/A     72  54  53 CALM      30.20S
EUREKA           N/A     75  39  27 MISG      30.02F
HAMILTON         N/A     68  52  56 CALM      30.13S
LIBBY            N/A     72  41  33 CALM      30.03F
PLAINS           N/A     69  45  42 CALM      30.06F
$$

MTZ008-052>055-271700-
SOUTHWEST MONTANA

CITY           SKY/WX    TMP DP  RH WIND       PRES   REMARKS
BOZEMAN        SUNNY     74  52  46 SE3       30.16S
DILLON         SUNNY     68  51  54 SW6       30.21F
W YELLOWSTONE  CLOUDY    52  52 100 CALM      30.34F
ENNIS          SUNNY     73  48  40 S10       30.26S
THREE FORKS      N/A     74  53  47 CALM      30.13S
TWIN BRIDGES     N/A     67  50  54 CALM      30.17S
$$

MTZ009-010-012-014-046-048-049-054-271700-
EAST SLOPES AND CENTRAL MONTANA

CITY           SKY/WX    TMP DP  RH WIND       PRES   REMARKS
CUT BANK       MOSUNNY   81  42  25 NW12      30.05S
GREAT FALLS    MOSUNNY   81  44  27 SW13      30.05F
HELENA         PTSUNNY   77  48  35 CALM      30.11S
AUGUSTA          N/A     76  39  26 S6        30.10R
BOWMANS CRNR     N/A     73  43  34 S12       30.09R
CHOTEAU          N/A     79  39  24 SE8       30.09S
FAIRFIELD      PTSUNNY   74  40  29 NE6       30.07R
POWER            N/A     76  38  25 W7        30.06F
RAYNESFORD     PTSUNNY   79  40  24 NW8       30.07F
ULM            PTSUNNY   78  46  32 W9        30.06S
$$

MTZ011-013-016-021-045-047-050-051-271700-
NORTH CENTRAL MONTANA

CITY           SKY/WX    TMP DP  RH WIND       PRES   REMARKS
HAVRE          MOSUNNY   79  47  32 CALM      29.98S
LEWISTOWN      CLOUDY    80  48  32 SE6       30.08F
N BAR RANCH      N/A     72  52  49 E7        30.14R
CHINOOK          N/A     75  52  43 E12G17    29.98S
DENTON           N/A     80  46  30 SE5       30.02R
GEYSER           N/A     81  40  22 W17G25    30.06S
GRASS RANGE    PTSUNNY   78  48  35 W3        30.04R
JUDITH GAP     PTSUNNY   79  46  31 E8        30.11R
WINIFRED         N/A     80  44  27 N8        30.04F
$$

MTZ017>020-022>027-061-062-271700-
NORTHEAST MONTANA

CITY           SKY/WX    TMP DP  RH WIND       PRES   REMARKS
GLASGOW        PTSUNNY   76  52  43 E23G31    30.00R
JORDAN           N/A     77  52  41 W16       30.00R
SIDNEY         MOSUNNY   77  57  50 SE17G28   30.07S
WOLF POINT     CLOUDY    80  54  40 SE15G25   30.01F
MALTA          SUNNY     79  52  38 VRB7      29.99S
PLENTYWOOD       N/A     68  59  73 SE6       30.08S
POPLAR           N/A     75  55  50 SE23G30   30.02F
SCOBEY           N/A     73  50  44 SE12      30.04F
$$

MTZ028>42-056>058-271700-
SOUTHCENTRAL AND SOUTHEAST MONTANA

CITY           SKY/WX    TMP DP  RH WIND       PRES   REMARKS
BAKER          SUNNY     85  54  34 SE15      30.07F
BILLINGS       MOSUNNY   76  54  46 S3        30.07S
LIVINGSTON     SUNNY     79  48  33 SW20      30.13F
MILES CITY     CLOUDY    82  56  40 SE8       30.00S
BIG TIMBER     SUNNY     79  48  34 W25       30.13S
EKALAKA          N/A     83  56  39 SE10      30.06F
FORSYTH          N/A     73  55  53 W8        30.01S
HARLOWTON      PTSUNNY   79  45  29 MISG      30.10R
LAUREL           N/A     79  53  40 S2        30.06F
$$

REGIONAL REPORTS...DAKOTAS

CITY           SKY/WX    TMP DP  RH WIND       PRES   REMARKS
WILLISTON      CLOUDY    67  60  78 S6        30.11R
MINOT          CLOUDY    74  57  55 S6        30.11S
DICKINSON      MOSUNNY   77  59  53 SE16      30.10S
BEACH            N/A     73  54  49 E18G24    30.13S
CROSBY           N/A     75  59  57 S15G22    30.08S
TIOGA            N/A     66  66 100 S8        30.12S
WATFORD CITY   PTSUNNY   64  59  82 SE16G24   30.10S
BISMARCK       CLOUDY    77  60  55 S6        30.13F
GRAND FORKS    PTSUNNY   78  63  59 CALM      30.12F
FARGO          SUNNY     78  62  57 CALM      30.12F
BUFFALO SD       N/A     85  58  39 S21G31    30.02F
RAPID CITY     CLOUDY    77  62  59 S17G24    30.14F
$$

REGIONAL REPORTS...WYOMING/IDAHO/WASHINGTON

CITY           SKY/WX    TMP DP  RH WIND       PRES   REMARKS
GILLETTE       SUNNY     80  60  50 S16G22    30.12S
SHERIDAN       PTSUNNY   72  58  61 N3        30.11R
BUFFALO WY     SUNNY     78  55  44 N6        30.15S
CODY           SUNNY     77  46  33 W12G18    30.17F
YELLOWSTONE LA   N/A     59  49  69 VRB3      30.41S
IDAHO FALLS    CLOUDY    66  57  72 SW3       30.24S
BOISE          MOSUNNY   77  52  41 CALM      30.11S
SPOKANE        MOSUNNY   71  52  50 S9        30.05R
$$

REGIONAL REPORTS...ALBERTA

CITY           SKY/WX    TMP DP  RH WIND       PRES   REMARKS
EDMONTON       PTSUNNY   66  59  77 N2        29.89R
CALGARY        MOSUNNY   77  48  36 SE3       29.97S
LETHBRIDGE     MOSUNNY   82  43  24 SW13G20   29.97F
MEDICINE HAT   PTSUNNY   84  54  34 SW7       29.93S
WATERTON GATE    N/A     79  43  27 S6          N/A
CARDSTON         N/A     82  37  20 W5          N/A
MILK RIVER       N/A     77  45  31 W7          N/A
ONEFOUR          N/A     79  46  31 E10         N/A
$$

REGIONAL REPORTS...SASKATCHEWAN

CITY           SKY/WX    TMP DP  RH WIND       PRES   REMARKS
SWIFT CURRENT  SUNNY     82  54  36 SE14      30.00F
REGINA         MOSUNNY   77  57  50 SE13G18   30.05S
SASKATOON      SUNNY     77  57  50 S6        30.01F
VAL MARIE        N/A     79  48  34 SE10        N/A
ROCKGLEN         N/A     73  55  53 SE17G24     N/A
ASSINIBOIA       N/A     70  57  64 SE6         N/A
$$




USA.gov is the U.S. government's official web portal to all federal, state and local government web resources and services.